Time,TemperatureF,DewpointF,PressureIn,WindDirection,WindDirectionDegrees,WindSpeedMPH,WindSpeedGustMPH,Humidity,HourlyPrecipIn,Conditions,Clouds,dailyrainin,SoftwareType,DateUTC
2013-04-14 00:00:00,52.5,44.1,30.08,West,273,0.0,0.0,73,0.00,,---,0.00,VWS V14.01,2013-04-14 04:00:00,
2013-04-14 00:01:00,52.5,44.1,30.08,West,273,0.0,0.0,73,0.00,,---,0.00,VWS V14.01,2013-04-14 04:01:00,
2013-04-14 00:02:00,52.4,44.4,30.08,West,273,0.0,0.0,74,0.00,,---,0.00,VWS V14.01,2013-04-14 04:02:00,
2013-04-14 00:04:00,52.3,44.3,30.08,West,273,0.0,0.0,74,0.00,,---,0.00,VWS V14.01,2013-04-14 04:04:00,
2013-04-14 00:09:00,51.8,43.4,30.08,West,273,0.0,0.0,73,0.00,,---,0.00,VWS V14.01,2013-04-14 04:09:00,
2013-04-14 00:14:00,51.5,42.8,30.08,West,273,0.0,0.0,72,0.00,,---,0.00,VWS V14.01,2013-04-14 04:14:00,
2013-04-14 00:19:00,51.4,43.0,30.08,West,273,0.0,0.0,73,0.00,,---,0.00,VWS V14.01,2013-04-14 04:19:00,
2013-04-14 00:24:00,51.6,43.6,30.08,West,273,0.0,0.0,74,0.00,,---,0.00,VWS V14.01,2013-04-14 04:24:00,
2013-04-14 00:30:00,51.7,44.4,30.08,West,273,0.0,0.0,76,0.00,,---,0.00,VWS V14.01,2013-04-14 04:30:00,
2013-04-14 00:35:00,51.8,44.8,30.08,West,273,0.0,0.0,77,0.00,,---,0.00,VWS V14.01,2013-04-14 04:35:00,
2013-04-14 00:40:00,51.8,44.8,30.09,West,273,0.0,0.0,77,0.00,,---,0.00,VWS V14.01,2013-04-14 04:40:00,
2013-04-14 00:45:00,51.7,45.4,30.09,West,273,0.0,0.0,79,0.00,,---,0.00,VWS V14.01,2013-04-14 04:45:00,
2013-04-14 00:52:00,51.5,46.2,30.09,West,273,0.0,0.0,82,0.00,,---,0.00,VWS V14.01,2013-04-14 04:52:00,
2013-04-14 00:57:00,50.9,45.3,30.09,West,273,0.0,0.0,81,0.00,,---,0.00,VWS V14.01,2013-04-14 04:57:00,
2013-04-14 01:02:00,50.2,44.9,30.09,West,273,0.0,0.0,82,0.00,,---,0.00,VWS V14.01,2013-04-14 05:02:00,
2013-04-14 01:07:00,49.7,44.8,30.09,West,273,0.0,0.0,83,0.00,,---,0.00,VWS V14.01,2013-04-14 05:07:00,
2013-04-14 01:13:00,49.4,44.8,30.09,West,273,0.0,0.0,84,0.00,,---,0.00,VWS V14.01,2013-04-14 05:13:00,
2013-04-14 01:18:00,49.5,44.9,30.09,West,273,0.0,0.0,84,0.00,,---,0.00,VWS V14.01,2013-04-14 05:18:00,
2013-04-14 01:23:00,49.2,44.3,30.09,West,273,0.0,0.0,83,0.00,,---,0.00,VWS V14.01,2013-04-14 05:23:00,
2013-04-14 01:28:00,49.3,44.4,30.09,West,273,0.0,0.0,83,0.00,,---,0.00,VWS V14.01,2013-04-14 05:28:00,
2013-04-14 01:33:00,49.3,44.7,30.09,West,273,0.0,0.0,84,0.00,,---,0.00,VWS V14.01,2013-04-14 05:33:00,
2013-04-14 01:39:00,49.4,44.8,30.09,West,273,0.0,0.0,84,0.00,,---,0.00,VWS V14.01,2013-04-14 05:39:00,
2013-04-14 01:44:00,49.4,45.1,30.09,West,273,0.0,0.0,85,0.00,,---,0.00,VWS V14.01,2013-04-14 05:44:00,
2013-04-14 01:49:00,49.3,45.0,30.09,West,273,0.0,0.0,85,0.00,,---,0.00,VWS V14.01,2013-04-14 05:49:00,
2013-04-14 01:54:00,49.1,44.8,30.09,West,273,0.0,0.0,85,0.00,,---,0.00,VWS V14.01,2013-04-14 05:54:00,
2013-04-14 01:59:00,48.6,44.3,30.09,West,273,0.0,0.0,85,0.00,,---,0.00,VWS V14.01,2013-04-14 05:59:00,
2013-04-14 02:05:00,48.5,44.8,30.09,West,273,0.0,0.0,87,0.00,,---,0.00,VWS V14.01,2013-04-14 06:05:00,
2013-04-14 02:10:00,48.5,44.5,30.09,West,273,0.0,0.0,86,0.00,,---,0.00,VWS V14.01,2013-04-14 06:10:00,
2013-04-14 02:15:00,48.1,44.4,30.09,West,273,0.0,0.0,87,0.00,,---,0.00,VWS V14.01,2013-04-14 06:15:00,
2013-04-14 02:21:00,47.9,44.2,30.09,West,273,0.0,0.0,87,0.00,,---,0.00,VWS V14.01,2013-04-14 06:21:00,
2013-04-14 02:26:00,47.5,43.8,30.09,West,273,0.0,0.0,87,0.00,,---,0.00,VWS V14.01,2013-04-14 06:26:00,
2013-04-14 02:32:00,47.1,43.7,30.09,West,273,0.0,0.0,88,0.00,,---,0.00,VWS V14.01,2013-04-14 06:32:00,
2013-04-14 02:37:00,47.0,43.9,30.09,West,273,0.0,0.0,89,0.00,,---,0.00,VWS V14.01,2013-04-14 06:37:00,
2013-04-14 02:42:00,47.4,44.3,30.09,West,273,0.0,0.0,89,0.00,,---,0.00,VWS V14.01,2013-04-14 06:42:00,
2013-04-14 02:48:00,47.2,43.8,30.08,West,273,0.0,0.0,88,0.00,,---,0.00,VWS V14.01,2013-04-14 06:48:00,
2013-04-14 02:53:00,47.2,44.1,30.08,West,273,0.0,0.0,89,0.00,,---,0.00,VWS V14.01,2013-04-14 06:53:00,
2013-04-14 02:58:00,47.0,43.6,30.08,West,273,0.0,0.0,88,0.00,,---,0.00,VWS V14.01,2013-04-14 06:58:00,
2013-04-14 03:03:00,46.7,43.3,30.08,West,273,0.0,0.0,88,0.00,,---,0.00,VWS V14.01,2013-04-14 07:03:00,
2013-04-14 03:09:00,46.5,43.4,30.08,West,273,0.0,0.0,89,0.00,,---,0.00,VWS V14.01,2013-04-14 07:09:00,
2013-04-14 03:14:00,46.5,43.4,30.08,West,273,0.0,0.0,89,0.00,,---,0.00,VWS V14.01,2013-04-14 07:14:00,
2013-04-14 03:19:00,46.1,42.8,30.08,West,273,0.0,0.0,88,0.00,,---,0.00,VWS V14.01,2013-04-14 07:19:00,
2013-04-14 03:25:00,45.8,42.8,30.08,West,273,0.0,0.0,89,0.00,,---,0.00,VWS V14.01,2013-04-14 07:25:00,
2013-04-14 03:30:00,45.5,42.5,30.08,West,273,0.0,0.0,89,0.00,,---,0.00,VWS V14.01,2013-04-14 07:30:00,
2013-04-14 03:35:00,45.2,42.5,30.08,West,273,0.0,0.0,90,0.00,,---,0.00,VWS V14.01,2013-04-14 07:35:00,
2013-04-14 03:40:00,45.1,42.3,30.08,West,273,0.0,0.0,90,0.00,,---,0.00,VWS V14.01,2013-04-14 07:40:00,
2013-04-14 03:46:00,45.1,42.3,30.08,West,273,0.0,0.0,90,0.00,,---,0.00,VWS V14.01,2013-04-14 07:46:00,
2013-04-14 03:51:00,44.9,42.2,30.08,West,273,0.0,0.0,90,0.00,,---,0.00,VWS V14.01,2013-04-14 07:51:00,
2013-04-14 03:56:00,44.8,42.0,30.08,West,273,0.0,0.0,90,0.00,,---,0.00,VWS V14.01,2013-04-14 07:56:00,
2013-04-14 04:01:00,44.8,42.3,30.08,West,273,0.0,0.0,91,0.00,,---,0.00,VWS V14.01,2013-04-14 08:01:00,
2013-04-14 04:07:00,44.7,42.2,30.08,West,273,0.0,0.0,91,0.00,,---,0.00,VWS V14.01,2013-04-14 08:07:00,
2013-04-14 04:12:00,44.5,41.8,30.08,West,273,0.0,0.0,90,0.00,,---,0.00,VWS V14.01,2013-04-14 08:12:00,
2013-04-14 04:17:00,44.3,41.6,30.08,West,273,0.0,0.0,90,0.00,,---,0.00,VWS V14.01,2013-04-14 08:17:00,
2013-04-14 04:22:00,44.3,41.8,30.08,West,273,0.0,0.0,91,0.00,,---,0.00,VWS V14.01,2013-04-14 08:22:00,
2013-04-14 04:28:00,44.5,42.0,30.09,West,273,0.0,0.0,91,0.00,,---,0.00,VWS V14.01,2013-04-14 08:28:00,
2013-04-14 04:33:00,44.6,41.8,30.09,West,273,0.0,0.0,90,0.00,,---,0.00,VWS V14.01,2013-04-14 08:33:00,
2013-04-14 04:38:00,44.3,41.6,30.09,West,273,0.0,0.0,90,0.00,,---,0.00,VWS V14.01,2013-04-14 08:38:00,
2013-04-14 04:43:00,44.0,41.3,30.09,West,273,0.0,0.0,90,0.00,,---,0.00,VWS V14.01,2013-04-14 08:43:00,
2013-04-14 04:48:00,43.7,41.0,30.09,West,273,0.0,0.0,90,0.00,,---,0.00,VWS V14.01,2013-04-14 08:48:00,
2013-04-14 04:53:00,43.7,41.0,30.09,West,273,0.0,0.0,90,0.00,,---,0.00,VWS V14.01,2013-04-14 08:53:00,
2013-04-14 04:58:00,44.0,41.5,30.09,West,273,0.0,0.0,91,0.00,,---,0.00,VWS V14.01,2013-04-14 08:58:00,
2013-04-14 05:04:00,44.1,41.7,30.09,West,273,0.0,0.0,91,0.00,,---,0.00,VWS V14.01,2013-04-14 09:04:00,
2013-04-14 05:09:00,44.1,41.7,30.09,West,273,0.0,0.0,91,0.00,,---,0.00,VWS V14.01,2013-04-14 09:09:00,
2013-04-14 05:14:00,44.1,41.7,30.09,West,273,0.0,0.0,91,0.00,,---,0.00,VWS V14.01,2013-04-14 09:14:00,
2013-04-14 05:19:00,44.0,41.5,30.09,West,273,0.0,0.0,91,0.00,,---,0.00,VWS V14.01,2013-04-14 09:19:00,
2013-04-14 05:24:00,43.9,41.7,30.09,West,273,0.0,0.0,92,0.00,,---,0.00,VWS V14.01,2013-04-14 09:24:00,
2013-04-14 05:30:00,43.8,41.6,30.09,West,273,0.0,0.0,92,0.00,,---,0.00,VWS V14.01,2013-04-14 09:30:00,
2013-04-14 05:35:00,43.7,41.5,30.09,West,273,0.0,0.0,92,0.00,,---,0.00,VWS V14.01,2013-04-14 09:35:00,
2013-04-14 05:40:00,43.8,41.6,30.09,West,273,0.0,0.0,92,0.00,,---,0.00,VWS V14.01,2013-04-14 09:40:00,
2013-04-14 05:46:00,43.9,41.7,30.10,West,273,0.0,0.0,92,0.00,,---,0.00,VWS V14.01,2013-04-14 09:46:00,
2013-04-14 05:51:00,44.1,42.2,30.10,West,273,0.0,0.0,93,0.00,,---,0.00,VWS V14.01,2013-04-14 09:51:00,
2013-04-14 05:56:00,44.2,42.3,30.10,West,273,0.0,0.0,93,0.00,,---,0.00,VWS V14.01,2013-04-14 09:56:00,
2013-04-14 06:01:00,44.0,41.8,30.10,West,273,0.0,0.0,92,0.00,,---,0.00,VWS V14.01,2013-04-14 10:01:00,
2013-04-14 06:07:00,43.9,41.7,30.10,West,273,0.0,0.0,92,0.00,,---,0.00,VWS V14.01,2013-04-14 10:07:00,
2013-04-14 06:12:00,43.6,41.4,30.10,West,273,0.0,0.0,92,0.00,,---,0.00,VWS V14.01,2013-04-14 10:12:00,
2013-04-14 06:17:00,43.5,41.3,30.10,West,273,0.0,0.0,92,0.00,,---,0.00,VWS V14.01,2013-04-14 10:17:00,
2013-04-14 06:23:00,43.5,41.6,30.10,West,273,0.0,1.0,93,0.00,,---,0.00,VWS V14.01,2013-04-14 10:23:00,
2013-04-14 06:28:00,43.4,41.5,30.10,West,273,0.0,1.0,93,0.00,,---,0.00,VWS V14.01,2013-04-14 10:28:00,
2013-04-14 06:33:00,43.3,41.4,30.10,West,273,0.0,0.0,93,0.00,,---,0.00,VWS V14.01,2013-04-14 10:33:00,
2013-04-14 06:38:00,43.4,41.5,30.10,West,273,0.0,0.0,93,0.00,,---,0.00,VWS V14.01,2013-04-14 10:38:00,
2013-04-14 06:43:00,43.7,41.8,30.11,West,273,0.0,2.0,93,0.00,,---,0.00,VWS V14.01,2013-04-14 10:43:00,
2013-04-14 06:48:00,44.2,42.6,30.11,West,273,0.0,0.0,94,0.00,,---,0.00,VWS V14.01,2013-04-14 10:48:00,
2013-04-14 06:54:00,44.3,42.4,30.12,West,273,0.0,0.0,93,0.00,,---,0.00,VWS V14.01,2013-04-14 10:54:00,
2013-04-14 06:59:00,44.6,43.0,30.12,West,273,0.0,0.0,94,0.00,,---,0.00,VWS V14.01,2013-04-14 10:59:00,
2013-04-14 07:04:00,44.7,42.8,30.12,West,273,0.0,0.0,93,0.00,,---,0.00,VWS V14.01,2013-04-14 11:04:00,
2013-04-14 07:09:00,44.3,42.1,30.12,West,273,0.0,0.0,92,0.00,,---,0.00,VWS V14.01,2013-04-14 11:09:00,
2013-04-14 07:14:00,44.3,42.4,30.12,West,273,0.0,0.0,93,0.00,,---,0.00,VWS V14.01,2013-04-14 11:14:00,
2013-04-14 07:19:00,44.2,42.3,30.12,West,273,0.0,0.0,93,0.00,,---,0.00,VWS V14.01,2013-04-14 11:19:00,
2013-04-14 07:24:00,44.2,42.3,30.13,West,273,0.0,0.0,93,0.00,,---,0.00,VWS V14.01,2013-04-14 11:24:00,
2013-04-14 07:30:00,44.3,42.4,30.13,West,273,0.0,0.0,93,0.00,,---,0.00,VWS V14.01,2013-04-14 11:30:00,
2013-04-14 07:35:00,44.7,43.1,30.13,West,273,0.0,0.0,94,0.00,,---,0.00,VWS V14.01,2013-04-14 11:35:00,
2013-04-14 07:40:00,44.8,42.9,30.13,West,273,0.0,0.0,93,0.00,,---,0.00,VWS V14.01,2013-04-14 11:40:00,
2013-04-14 07:45:00,45.5,43.9,30.13,West,273,0.0,0.0,94,0.00,,---,0.00,VWS V14.01,2013-04-14 11:45:00,
2013-04-14 07:50:00,46.5,44.6,30.13,West,273,0.0,0.0,93,0.00,,---,0.00,VWS V14.01,2013-04-14 11:50:00,
2013-04-14 07:56:00,47.9,45.7,30.13,West,273,0.0,0.0,92,0.00,,---,0.00,VWS V14.01,2013-04-14 11:56:00,
2013-04-14 08:02:00,49.5,47.0,30.13,West,273,0.0,0.0,91,0.00,,---,0.00,VWS V14.01,2013-04-14 12:02:00,
2013-04-14 08:07:00,50.8,47.7,30.13,West,273,0.0,0.0,89,0.00,,---,0.00,VWS V14.01,2013-04-14 12:07:00,
2013-04-14 08:12:00,52.2,48.2,30.13,West,273,0.0,0.0,86,0.00,,---,0.00,VWS V14.01,2013-04-14 12:12:00,
2013-04-14 08:17:00,52.2,48.2,30.14,West,273,0.0,0.0,86,0.00,,---,0.00,VWS V14.01,2013-04-14 12:17:00,
2013-04-14 08:22:00,53.4,49.6,30.14,West,273,0.0,0.0,87,0.00,,---,0.00,VWS V14.01,2013-04-14 12:22:00,
2013-04-14 08:28:00,55.4,50.3,30.14,West,273,0.0,0.0,83,0.00,,---,0.00,VWS V14.01,2013-04-14 12:28:00,
2013-04-14 08:33:00,56.0,50.6,30.14,West,273,0.0,0.0,82,0.00,,---,0.00,VWS V14.01,2013-04-14 12:33:00,
2013-04-14 08:38:00,57.0,48.8,30.15,West,273,0.0,0.0,74,0.00,,---,0.00,VWS V14.01,2013-04-14 12:38:00,
2013-04-14 08:43:00,58.2,49.2,30.15,West,273,0.0,0.0,72,0.00,,---,0.00,VWS V14.01,2013-04-14 12:43:00,
2013-04-14 08:49:00,59.0,48.5,30.14,SW,225,0.0,2.0,68,0.00,,---,0.00,VWS V14.01,2013-04-14 12:49:00,
2013-04-14 08:54:00,59.9,47.7,30.14,SSW,204,0.0,2.0,64,0.00,,---,0.00,VWS V14.01,2013-04-14 12:54:00,
2013-04-14 08:59:00,60.6,47.1,30.15,SSE,148,1.0,2.0,61,0.00,,---,0.00,VWS V14.01,2013-04-14 12:59:00,
2013-04-14 09:04:00,61.4,46.0,30.15,SE,127,0.0,3.0,57,0.00,,---,0.00,VWS V14.01,2013-04-14 13:04:00,
2013-04-14 09:09:00,62.8,47.8,30.14,East,85,0.0,3.0,58,0.00,,---,0.00,VWS V14.01,2013-04-14 13:09:00,
2013-04-14 09:15:00,63.0,46.1,30.14,East,96,1.0,3.0,54,0.00,,---,0.00,VWS V14.01,2013-04-14 13:15:00,
2013-04-14 09:20:00,64.1,46.6,30.14,ESE,117,3.0,3.0,53,0.00,,---,0.00,VWS V14.01,2013-04-14 13:20:00,
2013-04-14 09:25:00,63.9,44.9,30.14,ESE,117,0.0,4.0,50,0.00,,---,0.00,VWS V14.01,2013-04-14 13:25:00,
2013-04-14 09:30:00,63.9,44.9,30.14,SSE,158,0.0,4.0,50,0.00,,---,0.00,VWS V14.01,2013-04-14 13:30:00,
2013-04-14 09:37:00,64.4,45.4,30.15,East,90,2.0,3.0,50,0.00,,---,0.00,VWS V14.01,2013-04-14 13:37:00,
2013-04-14 09:42:00,64.6,47.6,30.15,ESE,121,0.0,3.0,54,0.00,,---,0.00,VWS V14.01,2013-04-14 13:42:00,
2013-04-14 09:47:00,65.9,48.8,30.15,NNE,24,1.0,3.0,54,0.00,,---,0.00,VWS V14.01,2013-04-14 13:47:00,
2013-04-14 09:52:00,66.7,48.0,30.14,ENE,60,2.0,3.0,51,0.00,,---,0.00,VWS V14.01,2013-04-14 13:52:00,
2013-04-14 09:58:00,67.9,49.7,30.14,ESE,121,1.0,5.0,52,0.00,,---,0.00,VWS V14.01,2013-04-14 13:58:00,
2013-04-14 10:03:00,67.3,46.4,30.14,North,5,2.0,3.0,47,0.00,,---,0.00,VWS V14.01,2013-04-14 14:03:00,
2013-04-14 10:08:00,68.0,48.7,30.14,SE,145,0.0,5.0,50,0.00,,---,0.00,VWS V14.01,2013-04-14 14:08:00,
2013-04-14 10:13:00,68.6,45.2,30.14,East,98,1.0,5.0,43,0.00,,---,0.00,VWS V14.01,2013-04-14 14:13:00,
2013-04-14 10:18:00,68.3,45.6,30.14,SSE,151,1.0,4.0,44,0.00,,---,0.00,VWS V14.01,2013-04-14 14:18:00,
2013-04-14 10:23:00,69.1,46.3,30.14,SSE,150,2.0,4.0,44,0.00,,---,0.00,VWS V14.01,2013-04-14 14:23:00,
2013-04-14 10:29:00,69.5,44.2,30.14,SSE,152,5.0,8.0,40,0.00,,---,0.00,VWS V14.01,2013-04-14 14:29:00,
2013-04-14 10:34:00,69.3,42.6,30.14,SE,130,4.0,9.0,38,0.00,,---,0.00,VWS V14.01,2013-04-14 14:34:00,
2013-04-14 10:39:00,69.4,44.1,30.14,SSE,163,1.0,9.0,40,0.00,,---,0.00,VWS V14.01,2013-04-14 14:39:00,
2013-04-14 10:45:00,70.0,44.6,30.13,SSE,147,4.0,9.0,40,0.00,,---,0.00,VWS V14.01,2013-04-14 14:45:00,
2013-04-14 10:50:00,70.0,42.6,30.13,East,83,1.0,8.0,37,0.00,,---,0.00,VWS V14.01,2013-04-14 14:50:00,
2013-04-14 10:56:00,70.4,42.9,30.13,ESE,119,2.0,9.0,37,0.00,,---,0.00,VWS V14.01,2013-04-14 14:56:00,
2013-04-14 11:02:00,70.7,45.9,30.13,ESE,119,2.0,5.0,41,0.00,,---,0.00,VWS V14.01,2013-04-14 15:02:00,
2013-04-14 11:07:00,71.0,45.5,30.13,ESE,119,7.0,7.0,40,0.00,,---,0.00,VWS V14.01,2013-04-14 15:07:00,
2013-04-14 11:12:00,71.5,44.6,30.13,SE,143,3.0,7.0,38,0.00,,---,0.00,VWS V14.01,2013-04-14 15:12:00,
2013-04-14 11:17:00,71.2,45.0,30.13,ESE,106,2.0,6.0,39,0.00,,---,0.00,VWS V14.01,2013-04-14 15:17:00,
2013-04-14 11:22:00,71.0,43.4,30.13,ESE,103,2.0,8.0,37,0.00,,---,0.00,VWS V14.01,2013-04-14 15:22:00,
2013-04-14 11:28:00,71.7,46.1,30.13,SE,134,0.0,8.0,40,0.00,,---,0.00,VWS V14.01,2013-04-14 15:28:00,
2013-04-14 11:33:00,71.6,48.6,30.13,SSE,158,1.0,3.0,44,0.00,,---,0.00,VWS V14.01,2013-04-14 15:33:00,
2013-04-14 11:39:00,71.6,46.0,30.13,SE,132,6.0,11.0,40,0.00,,---,0.00,VWS V14.01,2013-04-14 15:39:00,
2013-04-14 11:44:00,71.4,46.5,30.13,ESE,115,5.0,11.0,41,0.00,,---,0.00,VWS V14.01,2013-04-14 15:44:00,
2013-04-14 11:49:00,71.4,45.8,30.13,SE,140,1.0,7.0,40,0.00,,---,0.00,VWS V14.01,2013-04-14 15:49:00,
2013-04-14 11:55:00,71.4,47.1,30.13,ESE,107,2.0,7.0,42,0.00,,---,0.00,VWS V14.01,2013-04-14 15:55:00,
2013-04-14 12:00:00,72.1,47.1,30.13,East,93,2.0,7.0,41,0.00,,---,0.00,VWS V14.01,2013-04-14 16:00:00,
2013-04-14 12:05:00,72.2,48.5,30.13,South,175,3.0,5.0,43,0.00,,---,0.00,VWS V14.01,2013-04-14 16:05:00,
2013-04-14 12:10:00,72.3,46.7,30.13,ESE,118,4.0,6.0,40,0.00,,---,0.00,VWS V14.01,2013-04-14 16:10:00,
2013-04-14 12:15:00,72.4,46.7,30.13,South,169,1.0,8.0,40,0.00,,---,0.00,VWS V14.01,2013-04-14 16:15:00,
2013-04-14 12:20:00,72.4,46.1,30.13,SSE,147,4.0,11.0,39,0.00,,---,0.00,VWS V14.01,2013-04-14 16:20:00,
2013-04-14 12:25:00,72.9,46.5,30.13,SSE,148,2.0,11.0,39,0.00,,---,0.00,VWS V14.01,2013-04-14 16:25:00,
2013-04-14 12:31:00,73.2,47.5,30.13,SSW,198,5.0,11.0,40,0.00,,---,0.00,VWS V14.01,2013-04-14 16:31:00,
2013-04-14 12:37:00,73.5,47.0,30.13,South,170,5.0,6.0,39,0.00,,---,0.00,VWS V14.01,2013-04-14 16:37:00,
2013-04-14 12:42:00,73.6,47.8,30.13,SE,130,4.0,7.0,40,0.00,,---,0.00,VWS V14.01,2013-04-14 16:42:00,
2013-04-14 12:47:00,73.7,45.1,30.13,South,178,4.0,4.0,36,0.00,,---,0.00,VWS V14.01,2013-04-14 16:47:00,
2013-04-14 12:52:00,74.0,46.8,30.13,East,88,2.0,6.0,38,0.00,,---,0.00,VWS V14.01,2013-04-14 16:52:00,
2013-04-14 12:57:00,74.1,45.5,30.13,SSW,194,4.0,6.0,36,0.00,,---,0.00,VWS V14.01,2013-04-14 16:57:00,
2013-04-14 13:02:00,74.3,47.8,30.13,ESE,107,5.0,7.0,39,0.00,,---,0.00,VWS V14.01,2013-04-14 17:02:00,
2013-04-14 13:08:00,74.4,47.9,30.12,East,97,0.0,9.0,39,0.00,,---,0.00,VWS V14.01,2013-04-14 17:08:00,
2013-04-14 13:13:00,74.5,45.1,30.12,ESE,119,1.0,9.0,35,0.00,,---,0.00,VWS V14.01,2013-04-14 17:13:00,
2013-04-14 13:18:00,74.5,46.5,30.12,SSE,163,3.0,5.0,37,0.00,,---,0.00,VWS V14.01,2013-04-14 17:18:00,
2013-04-14 13:24:00,74.9,49.6,30.12,SSE,159,4.0,7.0,41,0.00,,---,0.00,VWS V14.01,2013-04-14 17:24:00,
2013-04-14 13:29:00,74.6,45.2,30.11,ESE,108,3.0,7.0,35,0.00,,---,0.00,VWS V14.01,2013-04-14 17:29:00,
2013-04-14 13:34:00,75.2,48.6,30.11,South,173,1.0,6.0,39,0.00,,---,0.00,VWS V14.01,2013-04-14 17:34:00,
2013-04-14 13:39:00,75.1,47.8,30.11,SSW,207,0.0,6.0,38,0.00,,---,0.00,VWS V14.01,2013-04-14 17:39:00,
2013-04-14 13:45:00,75.0,48.4,30.11,SE,130,3.0,8.0,39,0.00,,---,0.00,VWS V14.01,2013-04-14 17:45:00,
2013-04-14 13:50:00,75.0,46.3,30.11,SE,133,5.0,7.0,36,0.00,,---,0.00,VWS V14.01,2013-04-14 17:50:00,
2013-04-14 13:55:00,75.3,50.0,30.11,SSE,158,5.0,8.0,41,0.00,,---,0.00,VWS V14.01,2013-04-14 17:55:00,
2013-04-14 14:00:00,75.0,47.0,30.10,SSE,158,3.0,8.0,37,0.00,,---,0.00,VWS V14.01,2013-04-14 18:00:00,
2013-04-14 14:05:00,74.8,45.3,30.10,SSW,199,5.0,10.0,35,0.00,,---,0.00,VWS V14.01,2013-04-14 18:05:00,
2013-04-14 14:10:00,74.5,46.5,30.10,SSW,198,1.0,10.0,37,0.00,,---,0.00,VWS V14.01,2013-04-14 18:10:00,
2013-04-14 14:15:00,74.6,46.6,30.10,SSW,194,4.0,10.0,37,0.00,,---,0.00,VWS V14.01,2013-04-14 18:15:00,
2013-04-14 14:22:00,74.7,48.1,30.10,SSE,151,2.0,6.0,39,0.00,,---,0.00,VWS V14.01,2013-04-14 18:22:00,
2013-04-14 14:27:00,74.7,48.1,30.10,South,190,2.0,6.0,39,0.00,,---,0.00,VWS V14.01,2013-04-14 18:27:00,
2013-04-14 14:33:00,74.6,45.2,30.10,South,171,4.0,8.0,35,0.00,,---,0.00,VWS V14.01,2013-04-14 18:33:00,
2013-04-14 14:38:00,74.4,47.2,30.10,SSE,159,1.0,8.0,38,0.00,,---,0.00,VWS V14.01,2013-04-14 18:38:00,
2013-04-14 14:43:00,74.6,47.3,30.10,SE,146,0.0,8.0,38,0.00,,---,0.00,VWS V14.01,2013-04-14 18:43:00,
2013-04-14 14:48:00,75.0,47.0,30.09,ESE,116,7.0,8.0,37,0.00,,---,0.00,VWS V14.01,2013-04-14 18:48:00,
2013-04-14 14:53:00,75.2,47.9,30.09,South,177,6.0,8.0,38,0.00,,---,0.00,VWS V14.01,2013-04-14 18:53:00,
2013-04-14 14:59:00,75.1,48.5,30.09,SE,142,4.0,8.0,39,0.00,,---,0.00,VWS V14.01,2013-04-14 18:59:00,
2013-04-14 15:04:00,75.3,48.0,30.08,South,186,2.0,8.0,38,0.00,,---,0.00,VWS V14.01,2013-04-14 19:04:00,
2013-04-14 15:09:00,75.3,48.0,30.09,SSE,150,2.0,8.0,38,0.00,,---,0.00,VWS V14.01,2013-04-14 19:09:00,
2013-04-14 15:15:00,75.7,49.7,30.09,SSE,162,3.0,8.0,40,0.00,,---,0.00,VWS V14.01,2013-04-14 19:15:00,
2013-04-14 15:20:00,75.3,48.0,30.08,South,174,5.0,8.0,38,0.00,,---,0.00,VWS V14.01,2013-04-14 19:20:00,
2013-04-14 15:25:00,74.9,49.6,30.08,SSE,161,0.0,9.0,41,0.00,,---,0.00,VWS V14.01,2013-04-14 19:25:00,
2013-04-14 15:30:00,74.5,47.2,30.08,SSE,162,2.0,11.0,38,0.00,,---,0.00,VWS V14.01,2013-04-14 19:30:00,
2013-04-14 15:35:00,74.4,49.2,30.08,SSE,155,2.0,5.0,41,0.00,,---,0.00,VWS V14.01,2013-04-14 19:35:00,
2013-04-14 15:41:00,74.3,46.4,30.08,South,173,4.0,9.0,37,0.00,,---,0.00,VWS V14.01,2013-04-14 19:41:00,
2013-04-14 15:46:00,74.0,46.8,30.08,South,178,3.0,9.0,38,0.00,,---,0.00,VWS V14.01,2013-04-14 19:46:00,
2013-04-14 15:51:00,73.7,46.5,30.08,South,178,5.0,8.0,38,0.00,,---,0.00,VWS V14.01,2013-04-14 19:51:00,
2013-04-14 15:56:00,73.5,45.7,30.09,SE,133,2.0,8.0,37,0.00,,---,0.00,VWS V14.01,2013-04-14 19:56:00,
2013-04-14 16:01:00,73.4,46.3,30.08,South,184,3.0,4.0,38,0.00,,---,0.00,VWS V14.01,2013-04-14 20:01:00,
2013-04-14 16:06:00,73.2,46.1,30.08,SSW,199,5.0,8.0,38,0.00,,---,0.00,VWS V14.01,2013-04-14 20:06:00,
2013-04-14 16:11:00,73.0,47.9,30.08,SSW,196,4.0,8.0,41,0.00,,---,0.00,VWS V14.01,2013-04-14 20:11:00,
2013-04-14 16:17:00,72.9,45.8,30.08,SE,138,5.0,10.0,38,0.00,,---,0.00,VWS V14.01,2013-04-14 20:17:00,
2013-04-14 16:22:00,72.8,45.7,30.08,South,188,6.0,10.0,38,0.00,,---,0.00,VWS V14.01,2013-04-14 20:22:00,
2013-04-14 16:27:00,72.7,45.7,30.09,SSE,163,4.0,10.0,38,0.00,,---,0.00,VWS V14.01,2013-04-14 20:27:00,
2013-04-14 16:32:00,72.7,46.3,30.09,SSE,168,2.0,7.0,39,0.00,,---,0.00,VWS V14.01,2013-04-14 20:32:00,
2013-04-14 16:37:00,72.6,46.9,30.09,SE,143,2.0,7.0,40,0.00,,---,0.00,VWS V14.01,2013-04-14 20:37:00,
2013-04-14 16:42:00,72.4,46.7,30.09,South,186,5.0,8.0,40,0.00,,---,0.00,VWS V14.01,2013-04-14 20:42:00,
2013-04-14 16:48:00,72.3,45.3,30.09,South,186,2.0,8.0,38,0.00,,---,0.00,VWS V14.01,2013-04-14 20:48:00,
2013-04-14 16:53:00,72.1,46.5,30.09,SW,217,3.0,8.0,40,0.00,,---,0.00,VWS V14.01,2013-04-14 20:53:00,
2013-04-14 16:58:00,72.1,47.8,30.09,South,184,2.0,8.0,42,0.00,,---,0.00,VWS V14.01,2013-04-14 20:58:00,
2013-04-14 17:03:00,71.9,46.3,30.09,SSE,165,4.0,8.0,40,0.00,,---,0.00,VWS V14.01,2013-04-14 21:03:00,
2013-04-14 17:08:00,71.8,46.9,30.09,SSE,159,3.0,9.0,41,0.00,,---,0.00,VWS V14.01,2013-04-14 21:08:00,
2013-04-14 17:14:00,71.7,46.1,30.10,SSE,167,5.0,10.0,40,0.00,,---,0.00,VWS V14.01,2013-04-14 21:14:00,
2013-04-14 17:19:00,71.6,46.7,30.10,SSE,161,4.0,5.0,41,0.00,,---,0.00,VWS V14.01,2013-04-14 21:19:00,
2013-04-14 17:24:00,71.5,47.8,30.10,South,169,3.0,5.0,43,0.00,,---,0.00,VWS V14.01,2013-04-14 21:24:00,
2013-04-14 17:29:00,71.3,45.8,30.10,SE,136,4.0,8.0,40,0.00,,---,0.00,VWS V14.01,2013-04-14 21:29:00,
2013-04-14 17:34:00,71.1,46.2,30.10,South,186,7.0,7.0,41,0.00,,---,0.00,VWS V14.01,2013-04-14 21:34:00,
2013-04-14 17:40:00,71.1,47.5,30.10,South,177,2.0,8.0,43,0.00,,---,0.00,VWS V14.01,2013-04-14 21:40:00,
2013-04-14 17:45:00,70.9,47.3,30.11,South,190,1.0,8.0,43,0.00,,---,0.00,VWS V14.01,2013-04-14 21:45:00,
2013-04-14 17:50:00,70.8,47.2,30.10,SSE,162,2.0,7.0,43,0.00,,---,0.00,VWS V14.01,2013-04-14 21:50:00,
2013-04-14 17:55:00,70.5,47.6,30.10,South,176,5.0,7.0,44,0.00,,---,0.00,VWS V14.01,2013-04-14 21:55:00,
2013-04-14 18:00:00,70.5,47.0,30.10,SSE,155,1.0,7.0,43,0.00,,---,0.00,VWS V14.01,2013-04-14 22:00:00,
2013-04-14 18:06:00,70.4,47.5,30.10,SSE,161,4.0,6.0,44,0.00,,---,0.00,VWS V14.01,2013-04-14 22:06:00,
2013-04-14 18:11:00,70.3,47.4,30.10,South,185,1.0,6.0,44,0.00,,---,0.00,VWS V14.01,2013-04-14 22:11:00,
2013-04-14 18:16:00,70.1,48.4,30.10,South,182,2.0,6.0,46,0.00,,---,0.00,VWS V14.01,2013-04-14 22:16:00,
2013-04-14 18:22:00,69.8,49.2,30.10,SSE,156,0.0,2.0,48,0.00,,---,0.00,VWS V14.01,2013-04-14 22:22:00,
2013-04-14 18:27:00,69.7,48.6,30.10,South,169,1.0,5.0,47,0.00,,---,0.00,VWS V14.01,2013-04-14 22:27:00,
2013-04-14 18:32:00,69.6,48.5,30.10,SE,142,4.0,4.0,47,0.00,,---,0.00,VWS V14.01,2013-04-14 22:32:00,
2013-04-14 18:38:00,69.3,49.3,30.10,SE,142,4.0,6.0,49,0.00,,---,0.00,VWS V14.01,2013-04-14 22:38:00,
2013-04-14 18:43:00,69.2,49.2,30.09,South,175,1.0,6.0,49,0.00,,---,0.00,VWS V14.01,2013-04-14 22:43:00,
2013-04-14 18:48:00,69.1,48.6,30.09,South,172,4.0,6.0,48,0.00,,---,0.00,VWS V14.01,2013-04-14 22:48:00,
2013-04-14 18:53:00,69.0,49.1,30.09,South,177,3.0,6.0,49,0.00,,---,0.00,VWS V14.01,2013-04-14 22:53:00,
2013-04-14 18:59:00,68.8,49.4,30.09,SE,134,4.0,7.0,50,0.00,,---,0.00,VWS V14.01,2013-04-14 22:59:00,
2013-04-14 19:04:00,68.6,49.2,30.09,SSE,154,2.0,6.0,50,0.00,,---,0.00,VWS V14.01,2013-04-14 23:04:00,
2013-04-14 19:09:00,68.5,49.2,30.09,SSE,156,2.0,6.0,50,0.00,,---,0.00,VWS V14.01,2013-04-14 23:09:00,
2013-04-14 19:15:00,68.3,49.5,30.09,South,189,2.0,6.0,51,0.00,,---,0.00,VWS V14.01,2013-04-14 23:15:00,
2013-04-14 19:20:00,68.1,49.8,30.08,SSE,165,1.0,5.0,52,0.00,,---,0.00,VWS V14.01,2013-04-14 23:20:00,
2013-04-14 19:25:00,67.9,49.7,30.08,SSE,159,4.0,6.0,52,0.00,,---,0.00,VWS V14.01,2013-04-14 23:25:00,
2013-04-14 19:30:00,67.9,49.7,30.08,South,173,3.0,7.0,52,0.00,,---,0.00,VWS V14.01,2013-04-14 23:30:00,
2013-04-14 19:36:00,67.7,49.5,30.07,SSE,155,1.0,5.0,52,0.00,,---,0.00,VWS V14.01,2013-04-14 23:36:00,
2013-04-14 19:42:00,67.6,49.9,30.07,SE,134,4.0,7.0,53,0.00,,---,0.00,VWS V14.01,2013-04-14 23:42:00,
2013-04-14 19:47:00,67.6,49.9,30.07,SSE,167,2.0,5.0,53,0.00,,---,0.00,VWS V14.01,2013-04-14 23:47:00,
2013-04-14 19:53:00,67.5,50.3,30.07,SSE,158,7.0,9.0,54,0.00,,---,0.00,VWS V14.01,2013-04-14 23:53:00,
2013-04-14 19:58:00,67.4,50.7,30.07,SSW,192,5.0,11.0,55,0.00,,---,0.00,VWS V14.01,2013-04-14 23:58:00,
2013-04-14 20:03:00,67.2,51.0,30.07,South,169,2.0,4.0,56,0.00,,---,0.00,VWS V14.01,2013-04-15 00:03:00,
2013-04-14 20:08:00,67.0,51.3,30.07,SSE,163,2.0,6.0,57,0.00,,---,0.00,VWS V14.01,2013-04-15 00:08:00,
2013-04-14 20:14:00,66.6,51.8,30.07,SSE,161,4.0,6.0,59,0.00,,---,0.00,VWS V14.01,2013-04-15 00:14:00,
2013-04-14 20:19:00,66.3,52.5,30.07,SSE,148,1.0,7.0,61,0.00,,---,0.00,VWS V14.01,2013-04-15 00:19:00,
2013-04-14 20:24:00,65.9,53.0,30.06,SE,134,2.0,7.0,63,0.00,,---,0.00,VWS V14.01,2013-04-15 00:24:00,
2013-04-14 20:29:00,65.5,53.4,30.06,South,169,4.0,9.0,65,0.00,,---,0.00,VWS V14.01,2013-04-15 00:29:00,
2013-04-14 20:34:00,65.0,53.4,30.07,SSE,160,2.0,7.0,66,0.00,,---,0.00,VWS V14.01,2013-04-15 00:34:00,
2013-04-14 20:40:00,64.7,53.9,30.07,SSW,194,3.0,7.0,68,0.00,,---,0.00,VWS V14.01,2013-04-15 00:40:00,
2013-04-14 20:45:00,64.4,53.6,30.06,SSE,168,2.0,7.0,68,0.00,,---,0.00,VWS V14.01,2013-04-15 00:45:00,
2013-04-14 20:50:00,64.3,53.9,30.06,South,181,3.0,4.0,69,0.00,,---,0.00,VWS V14.01,2013-04-15 00:50:00,
2013-04-14 20:55:00,64.1,54.1,30.06,SSE,168,1.0,4.0,70,0.00,,---,0.00,VWS V14.01,2013-04-15 00:55:00,
2013-04-14 21:01:00,63.9,54.3,30.07,SSE,152,1.0,4.0,71,0.00,,---,0.00,VWS V14.01,2013-04-15 01:01:00,
2013-04-14 21:07:00,63.7,54.1,30.06,SSE,163,0.0,4.0,71,0.00,,---,0.00,VWS V14.01,2013-04-15 01:07:00,
2013-04-14 21:12:00,63.7,54.1,30.06,SSE,162,0.0,4.0,71,0.00,,---,0.00,VWS V14.01,2013-04-15 01:12:00,
2013-04-14 21:17:00,63.6,54.0,30.07,SSE,162,0.0,2.0,71,0.00,,---,0.00,VWS V14.01,2013-04-15 01:17:00,
2013-04-14 21:23:00,63.6,54.0,30.06,SE,146,2.0,3.0,71,0.00,,---,0.00,VWS V14.01,2013-04-15 01:23:00,
2013-04-14 21:28:00,63.6,54.0,30.06,SE,143,0.0,3.0,71,0.00,,---,0.00,VWS V14.01,2013-04-15 01:28:00,
2013-04-14 21:33:00,63.4,53.8,30.06,SE,143,0.0,2.0,71,0.00,,---,0.00,VWS V14.01,2013-04-15 01:33:00,
2013-04-14 21:39:00,63.2,54.0,30.06,SE,143,0.0,2.0,72,0.00,,---,0.00,VWS V14.01,2013-04-15 01:39:00,
2013-04-14 21:44:00,63.1,53.9,30.06,SE,143,0.0,2.0,72,0.00,,---,0.00,VWS V14.01,2013-04-15 01:44:00,
2013-04-14 21:49:00,63.0,54.2,30.06,SE,134,1.0,1.0,73,0.00,,---,0.00,VWS V14.01,2013-04-15 01:49:00,
2013-04-14 21:55:00,62.8,54.0,30.05,ESE,117,1.0,2.0,73,0.00,,---,0.00,VWS V14.01,2013-04-15 01:55:00,
2013-04-14 22:00:00,62.5,54.1,30.05,SE,136,0.0,2.0,74,0.00,,---,0.00,VWS V14.01,2013-04-15 02:00:00,
2013-04-14 22:05:00,62.3,53.9,30.05,SE,136,0.0,3.0,74,0.00,,---,0.00,VWS V14.01,2013-04-15 02:05:00,
2013-04-14 22:10:00,62.0,54.4,30.05,SE,136,0.0,3.0,76,0.00,,---,0.00,VWS V14.01,2013-04-15 02:10:00,
2013-04-14 22:15:00,61.3,54.7,30.05,SE,136,0.0,3.0,79,0.00,,---,0.00,VWS V14.01,2013-04-15 02:15:00,
2013-04-14 22:22:00,61.0,54.5,30.05,SE,136,0.0,1.0,79,0.00,,---,0.00,VWS V14.01,2013-04-15 02:22:00,
2013-04-14 22:27:00,61.0,54.8,30.05,SSE,165,0.0,2.0,80,0.00,,---,0.00,VWS V14.01,2013-04-15 02:27:00,
2013-04-14 22:32:00,61.0,54.1,30.05,SSE,165,0.0,0.0,78,0.00,,---,0.00,VWS V14.01,2013-04-15 02:32:00,
2013-04-14 22:37:00,61.1,54.5,30.06,SSE,165,0.0,0.0,79,0.00,,---,0.00,VWS V14.01,2013-04-15 02:37:00,
2013-04-14 22:42:00,61.1,54.2,30.06,SSE,165,0.0,0.0,78,0.00,,---,0.00,VWS V14.01,2013-04-15 02:42:00,
2013-04-14 22:47:00,61.2,53.9,30.06,SSE,165,0.0,0.0,77,0.00,,---,0.00,VWS V14.01,2013-04-15 02:47:00,
2013-04-14 22:52:00,61.2,53.9,30.05,SSE,151,0.0,2.0,77,0.00,,---,0.00,VWS V14.01,2013-04-15 02:52:00,
2013-04-14 22:58:00,61.2,53.9,30.05,ESE,123,0.0,3.0,77,0.00,,---,0.00,VWS V14.01,2013-04-15 02:58:00,
2013-04-14 23:03:00,61.3,53.0,30.04,SE,126,4.0,7.0,74,0.00,,---,0.00,VWS V14.01,2013-04-15 03:03:00,
2013-04-14 23:08:00,61.5,53.2,30.04,ESE,123,1.0,7.0,74,0.00,,---,0.00,VWS V14.01,2013-04-15 03:08:00,
2013-04-14 23:13:00,61.6,52.9,30.04,SE,133,1.0,7.0,73,0.00,,---,0.00,VWS V14.01,2013-04-15 03:13:00,
2013-04-14 23:18:00,61.8,53.1,30.04,SE,136,2.0,7.0,73,0.00,,---,0.00,VWS V14.01,2013-04-15 03:18:00,
2013-04-14 23:24:00,61.8,53.4,30.05,SSE,155,3.0,10.0,74,0.00,,---,0.00,VWS V14.01,2013-04-15 03:24:00,
2013-04-14 23:29:00,62.0,53.6,30.04,SE,144,5.0,10.0,74,0.00,,---,0.00,VWS V14.01,2013-04-15 03:29:00,
2013-04-14 23:34:00,62.1,53.3,30.04,SSE,157,1.0,10.0,73,0.00,,---,0.00,VWS V14.01,2013-04-15 03:34:00,
2013-04-14 23:39:00,62.3,53.5,30.05,South,189,2.0,10.0,73,0.00,,---,0.00,VWS V14.01,2013-04-15 03:39:00,
2013-04-14 23:44:00,62.3,53.5,30.05,SE,136,1.0,10.0,73,0.00,,---,0.00,VWS V14.01,2013-04-15 03:44:00,
2013-04-14 23:49:00,62.3,53.5,30.05,ESE,109,5.0,11.0,73,0.00,,---,0.00,VWS V14.01,2013-04-15 03:49:00,
2013-04-14 23:54:00,62.4,53.6,30.05,SSE,158,1.0,11.0,73,0.00,,---,0.00,VWS V14.01,2013-04-15 03:54:00,